SAS722 ESSA-EFHK

Flight info

Callsign SAS722
Flight time 0h 40m
Altitude 25000
Route TOVRI N851 RIKUM DCT RIRIP Y364 LAKUT
Aircraft A320/M-SDE3FGHIRWY/LB1

Departure

Time 2026-05-07 16:46
Airport Stockholm-Arlanda Airport (ESSA)

Arrival

Time 2026-05-07 17:26
Airport Helsinki Vantaa Airport (EFHK)
Time Latitude Longitude Altitude Speed Heading
2026-05-07 16:27 59.65283 17.93171 112 ft 0 kts 251°
2026-05-07 16:37 59.65288 17.93203 112 ft 4 kts 251°
2026-05-07 16:38 59.65295 17.93243 112 ft 4 kts 251°
2026-05-07 16:38 59.65303 17.93293 110 ft 4 kts 252°
2026-05-07 16:38 59.65311 17.93344 112 ft 4 kts 254°
2026-05-07 16:38 59.65312 17.93345 112 ft 4 kts 261°
2026-05-07 16:39 59.65323 17.93305 111 ft 4 kts 316°
2026-05-07 16:39 59.65345 17.93287 112 ft 10 kts 346°
2026-05-07 16:39 59.65346 17.93287 110 ft 0 kts 345°
2026-05-07 16:42 59.65367 17.93276 110 ft 8 kts 345°
2026-05-07 16:42 59.65438 17.93239 112 ft 11 kts 341°
2026-05-07 16:42 59.65503 17.93148 112 ft 12 kts 302°
2026-05-07 16:42 59.65488 17.92972 110 ft 14 kts 250°
2026-05-07 16:43 59.65449 17.92774 112 ft 17 kts 246°
2026-05-07 16:43 59.65445 17.92611 109 ft 13 kts 329°
2026-05-07 16:43 59.65549 17.92520 105 ft 19 kts 343°
2026-05-07 16:43 59.65688 17.92449 103 ft 22 kts 346°
2026-05-07 16:44 59.65797 17.92432 105 ft 15 kts
2026-05-07 16:44 59.65884 17.92451 107 ft 10 kts 344°
2026-05-07 16:44 59.65914 17.92344 110 ft 10 kts 280°
2026-05-07 16:44 59.65927 17.92198 114 ft 12 kts 279°
2026-05-07 16:45 59.65902 17.92112 115 ft 0 kts 192°
2026-05-07 16:45 59.65865 17.92097 114 ft 28 kts 191°
2026-05-07 16:45 59.65366 17.91916 105 ft 116 kts 190°
2026-05-07 16:46 59.64381 17.91558 353 ft 158 kts 187°
2026-05-07 16:46 59.63272 17.91143 1208 ft 164 kts 188°
2026-05-07 16:46 59.62520 17.90885 1608 ft 171 kts 188°
2026-05-07 16:46 59.61262 17.90578 1837 ft 196 kts 184°
2026-05-07 16:47 59.59788 17.90427 2195 ft 223 kts 182°
2026-05-07 16:47 59.58263 17.90285 3216 ft 216 kts 183°
2026-05-07 16:47 59.56771 17.90710 4029 ft 222 kts 156°
2026-05-07 16:47 59.55529 17.92564 4768 ft 229 kts 133°
2026-05-07 16:48 59.54462 17.95015 5377 ft 244 kts 121°
2026-05-07 16:48 59.53905 17.98251 5766 ft 265 kts 90°
2026-05-07 16:48 59.54326 18.01808 6409 ft 272 kts 57°
2026-05-07 16:48 59.55481 18.04787 7228 ft 275 kts 50°
2026-05-07 16:49 59.56577 18.07931 8089 ft 281 kts 55°
2026-05-07 16:49 59.57591 18.11274 8935 ft 286 kts 57°
2026-05-07 16:49 59.58595 18.14724 9764 ft 291 kts 57°
2026-05-07 16:49 59.59621 18.18241 10408 ft 302 kts 56°
2026-05-07 16:50 59.60717 18.21910 10645 ft 325 kts 56°
2026-05-07 16:50 59.61910 18.25812 11131 ft 336 kts 55°
2026-05-07 16:50 59.63143 18.29804 11788 ft 342 kts 55°
2026-05-07 16:50 59.64405 18.33863 12483 ft 348 kts 55°
2026-05-07 16:51 59.65684 18.37955 13177 ft 353 kts 54°
2026-05-07 16:51 59.66990 18.42121 13863 ft 358 kts 54°
2026-05-07 16:51 59.68291 18.46280 14457 ft 363 kts 54°
2026-05-07 16:51 59.69626 18.50560 15055 ft 368 kts 55°
2026-05-07 16:52 59.70975 18.54898 15643 ft 372 kts 55°
2026-05-07 16:52 59.72346 18.59316 16234 ft 377 kts 55°
2026-05-07 16:52 59.73728 18.63778 16830 ft 382 kts 54°
2026-05-07 16:52 59.75124 18.68302 17397 ft 387 kts 55°
2026-05-07 16:53 59.76536 18.72904 18004 ft 392 kts 55°
2026-05-07 16:53 59.77945 18.77505 18556 ft 397 kts 55°
2026-05-07 16:53 59.79349 18.82278 19074 ft 403 kts 62°
2026-05-07 16:53 59.80289 18.87596 19607 ft 410 kts 71°
2026-05-07 16:54 59.81107 18.93048 20153 ft 414 kts 71°
2026-05-07 16:54 59.81928 18.98584 20698 ft 418 kts 71°
2026-05-07 16:54 59.82735 19.04088 21221 ft 422 kts 72°
2026-05-07 16:54 59.83560 19.09744 21732 ft 427 kts 72°
2026-05-07 16:55 59.84389 19.15444 22244 ft 431 kts 72°
2026-05-07 16:55 59.85225 19.21197 22752 ft 435 kts 72°
2026-05-07 16:55 59.86072 19.27027 23267 ft 439 kts 72°
2026-05-07 16:55 59.86920 19.32890 23759 ft 443 kts 72°
2026-05-07 16:56 59.87775 19.38816 24185 ft 447 kts 72°
2026-05-07 16:56 59.88623 19.44717 24500 ft 453 kts 72°
2026-05-07 16:56 59.90382 19.56999 25039 ft 468 kts 72°
2026-05-07 16:57 59.91288 19.63313 25128 ft 479 kts 72°
2026-05-07 16:57 59.92214 19.69779 25156 ft 490 kts 72°
2026-05-07 16:57 59.93155 19.76401 25156 ft 499 kts 72°
2026-05-07 16:57 59.94084 19.83012 25157 ft 503 kts 72°
2026-05-07 16:58 59.95024 19.89745 25159 ft 504 kts 72°
2026-05-07 16:58 59.95963 19.96505 25160 ft 504 kts 72°
2026-05-07 16:58 59.96896 20.03263 25160 ft 504 kts 72°
2026-05-07 16:58 59.97832 20.10046 25159 ft 505 kts 72°
2026-05-07 16:59 59.98752 20.16723 25158 ft 505 kts 72°
2026-05-07 16:59 59.99681 20.23507 25156 ft 505 kts 73°
2026-05-07 16:59 60.00603 20.30292 25144 ft 505 kts 73°
2026-05-07 16:59 60.01521 20.37069 25137 ft 505 kts 73°
2026-05-07 17:00 60.02436 20.43855 25129 ft 505 kts 73°
2026-05-07 17:00 60.03350 20.50641 25128 ft 505 kts 73°
2026-05-07 17:00 60.04262 20.57433 25125 ft 505 kts 73°
2026-05-07 17:00 60.05171 20.64233 25124 ft 505 kts 73°
2026-05-07 17:01 60.06067 20.70939 25126 ft 505 kts 73°
2026-05-07 17:01 60.06972 20.77753 25126 ft 506 kts 73°
2026-05-07 17:01 60.07870 20.84569 25127 ft 506 kts 73°
2026-05-07 17:01 60.08758 20.91378 25124 ft 506 kts 73°
2026-05-07 17:02 60.09643 20.98210 25124 ft 506 kts 73°
2026-05-07 17:02 60.10524 21.05033 25124 ft 506 kts 73°
2026-05-07 17:02 60.11407 21.11873 25114 ft 506 kts 73°
2026-05-07 17:02 60.12289 21.18698 25115 ft 506 kts 73°
2026-05-07 17:03 60.13160 21.25448 25116 ft 506 kts 73°
2026-05-07 17:03 60.14040 21.32313 25118 ft 507 kts 74°
2026-05-07 17:03 60.14915 21.39180 25120 ft 507 kts 74°
2026-05-07 17:03 60.15784 21.46052 25122 ft 507 kts 74°
2026-05-07 17:04 60.16650 21.52936 25149 ft 507 kts 74°
2026-05-07 17:04 60.17503 21.59747 25149 ft 508 kts 74°
2026-05-07 17:04 60.18364 21.66657 25130 ft 509 kts 74°
2026-05-07 17:04 60.19221 21.73569 25124 ft 510 kts 74°
2026-05-07 17:05 60.20075 21.80504 25123 ft 510 kts 74°
2026-05-07 17:05 60.20924 21.87448 25115 ft 510 kts 74°
2026-05-07 17:05 60.21769 21.94382 25093 ft 510 kts 75°
2026-05-07 17:05 60.22608 22.01255 25096 ft 510 kts 75°
2026-05-07 17:06 60.23450 22.08187 25058 ft 507 kts 75°
2026-05-07 17:06 60.24270 22.14976 24859 ft 491 kts 75°
2026-05-07 17:06 60.25065 22.21602 24527 ft 479 kts 75°
2026-05-07 17:06 60.25832 22.28038 24283 ft 467 kts 75°
2026-05-07 17:07 60.26583 22.34350 24047 ft 460 kts 75°
2026-05-07 17:07 60.27326 22.40602 23806 ft 457 kts 75°
2026-05-07 17:07 60.28061 22.46813 23546 ft 455 kts 75°
2026-05-07 17:07 60.28792 22.53023 23261 ft 453 kts 75°
2026-05-07 17:08 60.29517 22.59209 22977 ft 451 kts 75°
2026-05-07 17:08 60.30230 22.65339 22575 ft 449 kts 75°
2026-05-07 17:08 60.30932 22.71413 22004 ft 448 kts 76°
2026-05-07 17:08 60.31636 22.77520 21489 ft 446 kts 76°
2026-05-07 17:09 60.32337 22.83610 20931 ft 445 kts 76°
2026-05-07 17:09 60.33035 22.89703 20384 ft 444 kts 76°
2026-05-07 17:09 60.33727 22.95785 19814 ft 444 kts 76°
2026-05-07 17:09 60.34418 23.01871 19231 ft 443 kts 76°
2026-05-07 17:10 60.35105 23.07933 18723 ft 440 kts 76°
2026-05-07 17:10 60.35771 23.13879 17991 ft 428 kts 76°
2026-05-07 17:10 60.36412 23.19644 17411 ft 410 kts 76°
2026-05-07 17:10 60.37019 23.25112 16843 ft 395 kts 76°
2026-05-07 17:11 60.37609 23.30428 16298 ft 381 kts 76°
2026-05-07 17:11 60.38181 23.35600 15774 ft 376 kts 76°
2026-05-07 17:11 60.38751 23.40759 15240 ft 377 kts 76°
2026-05-07 17:11 60.39322 23.45952 14684 ft 377 kts 76°
2026-05-07 17:12 60.39888 23.51127 14158 ft 377 kts 76°
2026-05-07 17:12 60.40449 23.56296 13575 ft 377 kts 76°
2026-05-07 17:12 60.41007 23.61472 13021 ft 374 kts 77°
2026-05-07 17:12 60.41559 23.66600 12499 ft 371 kts 77°
2026-05-07 17:13 60.42099 23.71628 11963 ft 368 kts 77°
2026-05-07 17:13 60.42633 23.76635 11733 ft 356 kts 77°
2026-05-07 17:13 60.43141 23.81430 11599 ft 342 kts 77°
2026-05-07 17:13 60.43632 23.86056 11405 ft 332 kts 77°
2026-05-07 17:14 60.43980 23.90644 11080 ft 327 kts 83°
2026-05-07 17:14 60.44242 23.95181 10728 ft 323 kts 83°
2026-05-07 17:14 60.44504 23.99683 10397 ft 319 kts 83°
2026-05-07 17:14 60.44756 24.04018 10252 ft 309 kts 82°
2026-05-07 17:15 60.45002 24.08268 10123 ft 298 kts 82°
2026-05-07 17:15 60.45237 24.12396 9867 ft 291 kts 83°
2026-05-07 17:15 60.45448 24.16462 9359 ft 289 kts 87°
2026-05-07 17:15 60.45107 24.20427 8883 ft 286 kts 114°
2026-05-07 17:16 60.44194 24.24006 8388 ft 285 kts 120°
2026-05-07 17:16 60.43219 24.27431 7985 ft 281 kts 120°
2026-05-07 17:16 60.42254 24.30760 7808 ft 268 kts 120°
2026-05-07 17:16 60.41301 24.33969 7466 ft 265 kts 120°
2026-05-07 17:17 60.40342 24.37156 7089 ft 263 kts 120°
2026-05-07 17:17 60.39384 24.40301 6715 ft 261 kts 120°
2026-05-07 17:17 60.38436 24.43372 6380 ft 260 kts 120°
2026-05-07 17:17 60.37475 24.46456 6099 ft 258 kts 121°
2026-05-07 17:18 60.36520 24.49531 5780 ft 257 kts 120°
2026-05-07 17:18 60.35585 24.52614 5467 ft 256 kts 115°
2026-05-07 17:18 60.35175 24.56032 5245 ft 246 kts 84°
2026-05-07 17:18 60.35481 24.59353 5083 ft 237 kts 72°
2026-05-07 17:19 60.35925 24.62525 5004 ft 237 kts 71°
2026-05-07 17:19 60.36396 24.65729 5011 ft 238 kts 69°
2026-05-07 17:19 60.37217 24.68550 5005 ft 231 kts 39°
2026-05-07 17:19 60.38609 24.69981 5014 ft 225 kts
2026-05-07 17:20 60.40142 24.69729 5007 ft 222 kts 344°
2026-05-07 17:20 60.41613 24.68846 5010 ft 222 kts 341°
2026-05-07 17:20 60.43057 24.67900 4928 ft 212 kts 340°
2026-05-07 17:20 60.44434 24.66990 4788 ft 204 kts 341°
2026-05-07 17:21 60.45779 24.66157 4550 ft 200 kts 349°
2026-05-07 17:21 60.47146 24.66530 4222 ft 203 kts 26°
2026-05-07 17:21 60.48161 24.68536 3826 ft 211 kts 57°
2026-05-07 17:21 60.48627 24.71357 3439 ft 216 kts 90°
2026-05-07 17:22 60.48312 24.74291 3121 ft 216 kts 112°
2026-05-07 17:22 60.47737 24.77103 2833 ft 215 kts 115°
2026-05-07 17:22 60.47146 24.79828 2697 ft 206 kts 116°
2026-05-07 17:22 60.46403 24.82206 2599 ft 192 kts 138°
2026-05-07 17:23 60.45370 24.83726 2420 ft 183 kts 156°
2026-05-07 17:23 60.44240 24.84891 2299 ft 183 kts 157°
2026-05-07 17:23 60.43109 24.86058 2247 ft 184 kts 156°
2026-05-07 17:23 60.41965 24.87239 2144 ft 185 kts 156°
2026-05-07 17:24 60.40831 24.88412 1944 ft 181 kts 157°
2026-05-07 17:24 60.39720 24.89558 1705 ft 176 kts 156°
2026-05-07 17:24 60.38667 24.90646 1470 ft 162 kts 157°
2026-05-07 17:24 60.37704 24.91641 1254 ft 150 kts 157°
2026-05-07 17:25 60.36806 24.92565 1051 ft 143 kts 157°
2026-05-07 17:25 60.35930 24.93462 861 ft 140 kts 156°
2026-05-07 17:25 60.35069 24.94342 695 ft 138 kts 155°
2026-05-07 17:25 60.34220 24.95236 468 ft 136 kts 156°
2026-05-07 17:26 60.33381 24.96094 309 ft 135 kts 156°
2026-05-07 17:26 60.32542 24.96947 182 ft 129 kts 155°
2026-05-07 17:26 60.31837 24.97667 151 ft 94 kts 153°
2026-05-07 17:26 60.31531 24.97987 153 ft 18 kts 152°
2026-05-07 17:27 60.31431 24.97921 155 ft 10 kts 233°
2026-05-07 17:27 60.31421 24.97887 155 ft 0 kts 242°
2026-05-07 17:27 60.31418 24.97876 155 ft 0 kts 242°
2026-05-07 17:27 60.31417 24.97874 155 ft 1 kts 242°
2026-05-07 17:28 60.31412 24.97852 155 ft 3 kts 242°
2026-05-07 17:28 60.31411 24.97795 156 ft 5 kts 287°
2026-05-07 17:28 60.31443 24.97738 156 ft 7 kts 327°
2026-05-07 17:28 60.31490 24.97687 156 ft 9 kts 339°
2026-05-07 17:29 60.31530 24.97600 157 ft 9 kts 274°
2026-05-07 17:29 60.31533 24.97501 161 ft 5 kts 311°
2026-05-07 17:29 60.31570 24.97458 163 ft 9 kts 332°
2026-05-07 17:29 60.31571 24.97383 166 ft 5 kts 246°
2026-05-07 17:30 60.31557 24.97325 166 ft 2 kts 243°
2026-05-07 17:30 60.31557 24.97324 166 ft 0 kts 243°